ITY894 LIRF-HECA

Flight info

Callsign ITY894
Flight time 2h 38m
Altitude 35000
Route PEPIX L50 UNIXO/N0437F350 DCT RUTOM DCT TRL/N0431F370 UL612 KUMBI L612 BLT A16 CVO DCT
Aircraft A320/M-V/N

Departure

Time 2026-05-07 22:07
Airport Rome–Fiumicino Leonardo da Vinci International Airport (LIRF)

Arrival

Time 2026-05-08 00:45
Airport Cairo International Airport (HECA)
Time Latitude Longitude Altitude Speed Heading
2026-05-07 21:51 41.79606 12.24323 14 ft 0 kts 276°
2026-05-07 21:53 41.79606 12.24324 14 ft 1 kts 276°
2026-05-07 21:53 41.79605 12.24341 14 ft 3 kts 276°
2026-05-07 21:53 41.79602 12.24371 14 ft 3 kts 276°
2026-05-07 21:54 41.79598 12.24410 17 ft 3 kts 285°
2026-05-07 21:54 41.79590 12.24438 14 ft 3 kts 300°
2026-05-07 21:54 41.79577 12.24461 18 ft 3 kts 329°
2026-05-07 21:54 41.79568 12.24467 15 ft 1 kts 339°
2026-05-07 21:55 41.79566 12.24468 14 ft 0 kts 339°
2026-05-07 21:57 41.79587 12.24457 15 ft 7 kts 339°
2026-05-07 21:57 41.79648 12.24427 14 ft 9 kts 340°
2026-05-07 21:58 41.79701 12.24401 15 ft 7 kts 339°
2026-05-07 21:58 41.79742 12.24380 14 ft 6 kts 340°
2026-05-07 21:58 41.79793 12.24356 14 ft 12 kts 339°
2026-05-07 21:58 41.79858 12.24394 14 ft 10 kts 22°
2026-05-07 21:59 41.79919 12.24385 15 ft 8 kts 335°
2026-05-07 21:59 41.79954 12.24335 14 ft 10 kts 283°
2026-05-07 21:59 41.79960 12.24243 16 ft 9 kts 313°
2026-05-07 21:59 41.80013 12.24226 14 ft 7 kts 20°
2026-05-07 22:00 41.80042 12.24274 13 ft 7 kts 66°
2026-05-07 22:00 41.80067 12.24358 13 ft 10 kts 69°
2026-05-07 22:00 41.80088 12.24438 15 ft 10 kts 70°
2026-05-07 22:00 41.80117 12.24545 14 ft 13 kts 70°
2026-05-07 22:01 41.80153 12.24676 13 ft 17 kts 69°
2026-05-07 22:01 41.80195 12.24832 14 ft 19 kts 71°
2026-05-07 22:01 41.80206 12.25010 14 ft 20 kts 95°
2026-05-07 22:01 41.80240 12.25191 13 ft 21 kts 70°
2026-05-07 22:02 41.80293 12.25377 17 ft 21 kts 70°
2026-05-07 22:02 41.80344 12.25568 15 ft 22 kts 70°
2026-05-07 22:02 41.80399 12.25769 15 ft 24 kts 69°
2026-05-07 22:02 41.80457 12.25977 15 ft 25 kts 70°
2026-05-07 22:03 41.80518 12.26197 18 ft 25 kts 70°
2026-05-07 22:03 41.80580 12.26423 16 ft 26 kts 70°
2026-05-07 22:03 41.80645 12.26660 15 ft 28 kts 70°
2026-05-07 22:03 41.80712 12.26900 13 ft 23 kts 69°
2026-05-07 22:04 41.80744 12.27022 13 ft 10 kts 70°
2026-05-07 22:04 41.80763 12.27089 15 ft 2 kts 69°
2026-05-07 22:04 41.80772 12.27121 14 ft 6 kts 69°
2026-05-07 22:04 41.80804 12.27145 13 ft 5 kts 355°
2026-05-07 22:05 41.80834 12.27134 13 ft 4 kts 342°
2026-05-07 22:05 41.80887 12.27107 13 ft 11 kts 339°
2026-05-07 22:05 41.80957 12.27071 14 ft 11 kts 337°
2026-05-07 22:05 41.80977 12.26991 14 ft 10 kts 250°
2026-05-07 22:06 41.80932 12.26829 14 ft 41 kts 250°
2026-05-07 22:06 41.80748 12.26160 20 ft 109 kts 250°
2026-05-07 22:06 41.80423 12.24953 28 ft 162 kts 254°
2026-05-07 22:06 41.80055 12.23486 580 ft 165 kts 251°
2026-05-07 22:07 41.79640 12.22065 1269 ft 163 kts 251°
2026-05-07 22:07 41.79060 12.20728 1797 ft 169 kts 226°
2026-05-07 22:07 41.78126 12.19742 2254 ft 175 kts 216°
2026-05-07 22:07 41.77156 12.18738 2888 ft 177 kts 219°
2026-05-07 22:08 41.76216 12.17673 3437 ft 177 kts 219°
2026-05-07 22:08 41.75045 12.16848 3536 ft 206 kts 191°
2026-05-07 22:08 41.73547 12.16794 3761 ft 226 kts 175°
2026-05-07 22:08 41.71876 12.16901 3936 ft 255 kts 176°
2026-05-07 22:09 41.70021 12.16998 4332 ft 276 kts 176°
2026-05-07 22:09 41.68121 12.17096 5341 ft 269 kts 177°
2026-05-07 22:09 41.66250 12.17193 6260 ft 270 kts 178°
2026-05-07 22:09 41.64364 12.17277 7040 ft 272 kts 178°
2026-05-07 22:10 41.62468 12.17360 7856 ft 273 kts 179°
2026-05-07 22:10 41.60579 12.17447 8594 ft 277 kts 179°
2026-05-07 22:10 41.58634 12.17541 9330 ft 281 kts 179°
2026-05-07 22:10 41.56663 12.17633 10023 ft 288 kts 179°
2026-05-07 22:11 41.54595 12.17443 10273 ft 310 kts 191°
2026-05-07 22:11 41.52413 12.16880 10566 ft 327 kts 190°
2026-05-07 22:11 41.50161 12.16316 11240 ft 331 kts 190°
2026-05-07 22:11 41.47873 12.15890 11916 ft 335 kts 180°
2026-05-07 22:12 41.45535 12.16045 12600 ft 338 kts 176°
2026-05-07 22:12 41.43178 12.16262 13283 ft 342 kts 176°
2026-05-07 22:12 41.40793 12.16493 13930 ft 346 kts 176°
2026-05-07 22:12 41.38380 12.16732 14501 ft 349 kts 176°
2026-05-07 22:13 41.35950 12.16974 15127 ft 351 kts 176°
2026-05-07 22:13 41.33498 12.17214 15726 ft 354 kts 176°
2026-05-07 22:13 41.31030 12.17451 16323 ft 357 kts 176°
2026-05-07 22:13 41.28545 12.17685 16917 ft 360 kts 176°
2026-05-07 22:14 41.26038 12.17920 17495 ft 363 kts 176°
2026-05-07 22:14 41.23512 12.18154 18089 ft 366 kts 177°
2026-05-07 22:14 41.20966 12.18390 18613 ft 368 kts 177°
2026-05-07 22:14 41.18417 12.18860 19112 ft 372 kts 167°
2026-05-07 22:15 41.15970 12.20036 19602 ft 377 kts 155°
2026-05-07 22:15 41.13759 12.21879 20095 ft 384 kts 143°
2026-05-07 22:15 41.11789 12.24298 20572 ft 389 kts 138°
2026-05-07 22:15 41.09843 12.26820 21016 ft 393 kts 138°
2026-05-07 22:16 41.07873 12.29359 21468 ft 397 kts 138°
2026-05-07 22:16 41.05881 12.31920 21921 ft 401 kts 139°
2026-05-07 22:16 41.03871 12.34500 22370 ft 405 kts 139°
2026-05-07 22:16 41.01835 12.37110 22816 ft 409 kts 139°
2026-05-07 22:17 40.99780 12.39742 23252 ft 413 kts 139°
2026-05-07 22:17 40.97704 12.42396 23640 ft 416 kts 140°
2026-05-07 22:17 40.95614 12.45071 24003 ft 419 kts 140°
2026-05-07 22:17 40.93508 12.47769 24375 ft 422 kts 140°
2026-05-07 22:18 40.91421 12.50441 24736 ft 424 kts 140°
2026-05-07 22:18 40.87162 12.55887 25433 ft 428 kts 140°
2026-05-07 22:18 40.85014 12.58632 25774 ft 431 kts 140°
2026-05-07 22:19 40.82854 12.61387 26108 ft 433 kts 140°
2026-05-07 22:19 40.80677 12.64161 26439 ft 435 kts 140°
2026-05-07 22:19 40.78600 12.67097 26766 ft 441 kts 132°
2026-05-07 22:19 40.76882 12.70486 27083 ft 449 kts 122°
2026-05-07 22:20 40.75565 12.74250 27395 ft 454 kts 116°
2026-05-07 22:20 40.74344 12.78104 27697 ft 456 kts 116°
2026-05-07 22:20 40.73111 12.81983 27966 ft 460 kts 117°
2026-05-07 22:20 40.71868 12.85874 28237 ft 463 kts 117°
2026-05-07 22:21 40.70612 12.89791 28522 ft 465 kts 117°
2026-05-07 22:21 40.69348 12.93723 28807 ft 467 kts 117°
2026-05-07 22:21 40.68073 12.97672 29081 ft 469 kts 117°
2026-05-07 22:21 40.66788 13.01634 29352 ft 471 kts 117°
2026-05-07 22:22 40.65498 13.05616 29620 ft 474 kts 117°
2026-05-07 22:22 40.64218 13.09563 29874 ft 476 kts 117°
2026-05-07 22:22 40.62899 13.13625 30093 ft 478 kts 117°
2026-05-07 22:22 40.61604 13.17608 30232 ft 482 kts 118°
2026-05-07 22:23 40.60279 13.21675 30372 ft 485 kts 118°
2026-05-07 22:23 40.58949 13.25762 30563 ft 487 kts 118°
2026-05-07 22:23 40.57613 13.29865 30748 ft 489 kts 118°
2026-05-07 22:23 40.56270 13.33982 30970 ft 490 kts 118°
2026-05-07 22:24 40.54929 13.38092 31267 ft 489 kts 118°
2026-05-07 22:24 40.53586 13.42197 31552 ft 488 kts 118°
2026-05-07 22:24 40.52243 13.46294 31846 ft 487 kts 118°
2026-05-07 22:24 40.50902 13.50376 32119 ft 486 kts 119°
2026-05-07 22:25 40.49558 13.54463 32387 ft 486 kts 119°
2026-05-07 22:25 40.48218 13.58530 32655 ft 486 kts 119°
2026-05-07 22:25 40.46874 13.62598 32929 ft 485 kts 119°
2026-05-07 22:25 40.45529 13.66660 33201 ft 485 kts 119°
2026-05-07 22:26 40.44185 13.70717 33481 ft 484 kts 119°
2026-05-07 22:26 40.42843 13.74774 33756 ft 484 kts 119°
2026-05-07 22:26 40.41508 13.78808 34013 ft 483 kts 119°
2026-05-07 22:26 40.40168 13.82848 34236 ft 483 kts 119°
2026-05-07 22:27 40.38823 13.86895 34416 ft 484 kts 119°
2026-05-07 22:27 40.37471 13.90948 34542 ft 486 kts 119°
2026-05-07 22:27 40.36127 13.94963 34693 ft 487 kts 119°
2026-05-07 22:27 40.34765 13.99031 34864 ft 488 kts 119°
2026-05-07 22:28 40.33402 14.03105 34912 ft 486 kts 119°
2026-05-07 22:28 40.30697 14.11193 34921 ft 483 kts 119°
2026-05-07 22:29 40.27988 14.19237 34924 ft 483 kts 120°
2026-05-07 22:29 40.25269 14.27288 34927 ft 484 kts 120°
2026-05-07 22:30 40.22537 14.35350 34924 ft 485 kts 121°
2026-05-07 22:30 40.19791 14.43422 34930 ft 486 kts 121°
2026-05-07 22:31 40.17049 14.51504 34933 ft 486 kts 121°
2026-05-07 22:31 40.14303 14.59566 34936 ft 485 kts 121°
2026-05-07 22:32 40.11566 14.67567 34937 ft 485 kts 121°
2026-05-07 22:32 40.08803 14.75614 34936 ft 485 kts 121°
2026-05-07 22:33 40.06037 14.83643 34931 ft 485 kts 121°
2026-05-07 22:33 40.03272 14.91664 34932 ft 485 kts 121°
2026-05-07 22:34 40.00502 14.99680 34922 ft 485 kts 121°
2026-05-07 22:34 39.97724 15.07697 34927 ft 485 kts 121°
2026-05-07 22:35 39.94937 15.15703 34930 ft 485 kts 121°
2026-05-07 22:35 39.92159 15.23646 34940 ft 485 kts 121°
2026-05-07 22:36 39.89364 15.31624 34920 ft 485 kts 121°
2026-05-07 22:36 39.86563 15.39617 34915 ft 485 kts 122°
2026-05-07 22:37 39.83751 15.47601 34925 ft 485 kts 122°
2026-05-07 22:37 39.80928 15.55582 34941 ft 485 kts 122°
2026-05-07 22:38 39.78103 15.63576 34946 ft 486 kts 122°
2026-05-07 22:38 39.75296 15.71492 34934 ft 486 kts 122°
2026-05-07 22:39 39.72460 15.79457 34960 ft 486 kts 123°
2026-05-07 22:39 39.69613 15.87415 34969 ft 486 kts 123°
2026-05-07 22:40 39.66763 15.95379 34982 ft 486 kts 123°
2026-05-07 22:40 39.63916 16.03314 34969 ft 486 kts 123°
2026-05-07 22:41 39.61059 16.11276 34983 ft 487 kts 123°
2026-05-07 22:41 39.58206 16.19179 34992 ft 487 kts 123°
2026-05-07 22:42 39.55308 16.27181 35000 ft 487 kts 123°
2026-05-07 22:42 39.52448 16.35084 35003 ft 488 kts 123°
2026-05-07 22:43 39.49557 16.43048 34992 ft 489 kts 124°
2026-05-07 22:43 39.46653 16.51024 34994 ft 490 kts 124°
2026-05-07 22:44 39.43727 16.58997 35006 ft 491 kts 124°
2026-05-07 22:44 39.41291 16.65627 35012 ft 491 kts 124°
2026-05-07 22:45 39.38362 16.73606 34987 ft 491 kts 124°
2026-05-07 22:45 39.35417 16.81602 34989 ft 493 kts 124°
2026-05-07 22:46 39.32462 16.89611 35000 ft 494 kts 124°
2026-05-07 22:46 39.29500 16.97631 34998 ft 495 kts 124°
2026-05-07 22:47 39.26516 17.05641 34993 ft 495 kts 124°
2026-05-07 22:47 39.23521 17.13657 34990 ft 497 kts 124°
2026-05-07 22:48 39.20537 17.21656 34986 ft 498 kts 124°
2026-05-07 22:48 39.17529 17.29697 34985 ft 498 kts 124°
2026-05-07 22:49 39.14504 17.37746 34960 ft 499 kts 125°
2026-05-07 22:49 39.11468 17.45785 34964 ft 500 kts 124°
2026-05-07 22:50 39.08420 17.53856 34965 ft 502 kts 124°
2026-05-07 22:50 39.05363 17.61951 34972 ft 503 kts 124°
2026-05-07 22:51 39.02297 17.70047 34973 ft 504 kts 124°
2026-05-07 22:51 38.99242 17.78092 34961 ft 504 kts 124°
2026-05-07 22:52 38.96142 17.86203 34962 ft 505 kts 124°
2026-05-07 22:52 38.93038 17.94305 34968 ft 506 kts 124°
2026-05-07 22:53 38.89927 18.02418 34978 ft 506 kts 124°
2026-05-07 22:53 38.86810 18.10526 34981 ft 506 kts 124°
2026-05-07 22:54 38.83690 18.18627 34986 ft 506 kts 124°
2026-05-07 22:54 38.80581 18.26676 34990 ft 506 kts 124°
2026-05-07 22:55 38.77444 18.34763 34976 ft 506 kts 124°
2026-05-07 22:55 38.74300 18.42834 34989 ft 506 kts 124°
2026-05-07 22:56 38.71155 18.50886 34987 ft 506 kts 123°
2026-05-07 22:56 38.68001 18.58952 34988 ft 506 kts 123°
2026-05-07 22:57 38.64846 18.67018 34991 ft 507 kts 123°
2026-05-07 22:57 38.61687 18.75062 34994 ft 507 kts 124°
2026-05-07 22:58 38.58532 18.83062 34988 ft 507 kts 123°
2026-05-07 22:58 38.55355 18.91105 34995 ft 507 kts 123°
2026-05-07 22:59 38.52166 18.99165 35005 ft 508 kts 123°
2026-05-07 22:59 38.49229 19.07405 35006 ft 512 kts 118°
2026-05-07 23:00 38.46678 19.15909 34988 ft 514 kts 115°
2026-05-07 23:00 38.44152 19.24443 34999 ft 514 kts 116°
2026-05-07 23:01 38.41494 19.32892 35007 ft 513 kts 117°
2026-05-07 23:01 38.38786 19.41243 35006 ft 513 kts 118°
2026-05-07 23:02 38.36067 19.49657 34992 ft 513 kts 117°
2026-05-07 23:02 38.33368 19.58078 35008 ft 513 kts 117°
2026-05-07 23:03 38.30674 19.66500 35021 ft 514 kts 117°
2026-05-07 23:03 38.27955 19.74930 35025 ft 514 kts 117°
2026-05-07 23:04 38.25250 19.83278 35023 ft 513 kts 117°
2026-05-07 23:04 38.22523 19.91683 35022 ft 514 kts 117°
2026-05-07 23:05 38.19781 20.00078 35026 ft 514 kts 117°
2026-05-07 23:05 38.17038 20.08471 35030 ft 515 kts 117°
2026-05-07 23:06 38.14290 20.16888 35021 ft 515 kts 116°
2026-05-07 23:06 38.11528 20.25305 35034 ft 516 kts 117°
2026-05-07 23:07 38.08761 20.33714 35035 ft 517 kts 117°
2026-05-07 23:07 38.06019 20.42021 35046 ft 517 kts 117°
2026-05-07 23:08 38.03227 20.50431 35049 ft 517 kts 117°
2026-05-07 23:08 38.00429 20.58841 35055 ft 518 kts 116°
2026-05-07 23:09 37.97629 20.67259 35076 ft 518 kts 116°
2026-05-07 23:09 37.94824 20.75668 35086 ft 518 kts 117°
2026-05-07 23:10 37.92005 20.84079 35082 ft 518 kts 116°
2026-05-07 23:10 37.89182 20.92475 35075 ft 518 kts 116°
2026-05-07 23:11 37.86355 21.00858 35084 ft 517 kts 116°
2026-05-07 23:11 37.83531 21.09229 35088 ft 517 kts 116°
2026-05-07 23:12 37.80716 21.17539 35086 ft 517 kts 116°
2026-05-07 23:12 37.77877 21.25891 35079 ft 517 kts 116°
2026-05-07 23:13 37.75029 21.34245 35082 ft 517 kts 116°
2026-05-07 23:13 37.72170 21.42585 35079 ft 517 kts 116°
2026-05-07 23:14 37.69311 21.50906 35091 ft 517 kts 116°
2026-05-07 23:14 37.66451 21.59240 35102 ft 517 kts 116°
2026-05-07 23:15 37.63585 21.67556 35096 ft 517 kts 116°
2026-05-07 23:15 37.60730 21.75827 35094 ft 517 kts 116°
2026-05-07 23:16 37.57856 21.84127 35105 ft 517 kts 116°
2026-05-07 23:16 37.54966 21.92430 35101 ft 517 kts 116°
2026-05-07 23:17 37.52084 22.00691 35116 ft 517 kts 116°
2026-05-07 23:17 37.49181 22.08990 35126 ft 518 kts 116°
2026-05-07 23:18 37.46271 22.17295 35139 ft 518 kts 116°
2026-05-07 23:18 37.43365 22.25573 35153 ft 517 kts 116°
2026-05-07 23:19 37.40342 22.33767 35158 ft 514 kts 123°
2026-05-07 23:19 37.36312 22.41109 35149 ft 509 kts 130°
2026-05-07 23:20 37.32188 22.48276 35152 ft 510 kts 129°
2026-05-07 23:20 37.28048 22.55506 35152 ft 510 kts 129°
2026-05-07 23:21 37.23902 22.62714 35149 ft 509 kts 129°
2026-05-07 23:21 37.19742 22.69905 35150 ft 509 kts 129°
2026-05-07 23:22 37.15572 22.77095 35145 ft 509 kts 129°
2026-05-07 23:22 37.11402 22.84283 35147 ft 510 kts 129°
2026-05-07 23:23 37.07229 22.91472 35121 ft 510 kts 129°
2026-05-07 23:23 37.03038 22.98659 35096 ft 511 kts 129°
2026-05-07 23:24 36.98837 23.05833 35113 ft 511 kts 129°
2026-05-07 23:24 36.94636 23.13020 35130 ft 512 kts 129°
2026-05-07 23:25 36.90456 23.20159 35119 ft 512 kts 129°
2026-05-07 23:25 36.86227 23.27351 35117 ft 513 kts 129°
2026-05-07 23:26 36.81994 23.34529 35124 ft 513 kts 129°
2026-05-07 23:26 36.77750 23.41702 35125 ft 513 kts 129°
2026-05-07 23:27 36.71395 23.52398 35129 ft 513 kts 129°
2026-05-07 23:27 36.67130 23.59558 35119 ft 514 kts 129°
2026-05-07 23:28 36.62870 23.66695 35130 ft 514 kts 129°
2026-05-07 23:28 36.58599 23.73845 35135 ft 514 kts 129°
2026-05-07 23:29 36.54333 23.80966 35135 ft 515 kts 128°
2026-05-07 23:29 36.50047 23.88094 35141 ft 517 kts 128°
2026-05-07 23:30 36.45751 23.95230 35284 ft 520 kts 128°
2026-05-07 23:30 36.41411 24.02428 35427 ft 520 kts 128°
2026-05-07 23:31 36.37080 24.09633 35582 ft 520 kts 128°
2026-05-07 23:31 36.32772 24.16827 35709 ft 519 kts 128°
2026-05-07 23:32 36.28458 24.24010 35855 ft 519 kts 128°
2026-05-07 23:32 36.24136 24.31183 36006 ft 519 kts 128°
2026-05-07 23:33 36.19835 24.38292 36155 ft 519 kts 128°
2026-05-07 23:33 36.15494 24.45423 36306 ft 518 kts 127°
2026-05-07 23:34 36.11154 24.52529 36458 ft 517 kts 127°
2026-05-07 23:34 36.06806 24.59620 36611 ft 517 kts 127°
2026-05-07 23:35 36.03195 24.65506 36741 ft 517 kts 127°
2026-05-07 23:35 35.98143 24.73719 36906 ft 517 kts 127°
2026-05-07 23:36 35.95971 24.77250 37023 ft 516 kts 127°
2026-05-07 23:36 35.93802 24.80778 37127 ft 516 kts 127°
2026-05-07 23:36 35.90157 24.86697 37137 ft 516 kts 127°
2026-05-07 23:37 35.85806 24.93738 37138 ft 516 kts 127°
2026-05-07 23:37 35.81475 25.00731 37143 ft 516 kts 127°
2026-05-07 23:38 35.77118 25.07757 37141 ft 516 kts 127°
2026-05-07 23:38 35.72753 25.14778 37141 ft 516 kts 127°
2026-05-07 23:39 35.68386 25.21781 37140 ft 516 kts 127°
2026-05-07 23:39 35.64010 25.28766 37142 ft 515 kts 127°
2026-05-07 23:40 35.59631 25.35748 37147 ft 515 kts 127°
2026-05-07 23:40 35.55250 25.42728 37136 ft 516 kts 127°
2026-05-07 23:41 35.50867 25.49710 37132 ft 516 kts 127°
2026-05-07 23:41 35.46478 25.56678 37133 ft 516 kts 127°
2026-05-07 23:42 35.42075 25.63634 37133 ft 516 kts 127°
2026-05-07 23:42 35.37713 25.70527 37131 ft 516 kts 127°
2026-05-07 23:43 35.33306 25.77479 37137 ft 517 kts 127°
2026-05-07 23:43 35.28886 25.84432 37129 ft 517 kts 127°
2026-05-07 23:44 35.24463 25.91369 37141 ft 517 kts 127°
2026-05-07 23:44 35.20034 25.98303 37148 ft 517 kts 127°
2026-05-07 23:45 35.15608 26.05238 37153 ft 517 kts 127°
2026-05-07 23:45 35.11179 26.12158 37157 ft 517 kts 127°
2026-05-07 23:46 35.06811 26.19045 37157 ft 516 kts 123°
2026-05-07 23:46 35.02993 26.26443 37161 ft 515 kts 120°
2026-05-07 23:47 34.99208 26.33860 37172 ft 514 kts 120°
2026-05-07 23:47 34.95417 26.41258 37173 ft 514 kts 120°
2026-05-07 23:48 34.91616 26.48636 37160 ft 514 kts 120°
2026-05-07 23:48 34.87811 26.56009 37162 ft 514 kts 120°
2026-05-07 23:49 34.84011 26.63374 37173 ft 514 kts 119°
2026-05-07 23:49 34.80208 26.70752 37172 ft 514 kts 119°
2026-05-07 23:50 34.76430 26.78066 37174 ft 514 kts 120°
2026-05-07 23:50 34.72607 26.85419 37173 ft 514 kts 120°
2026-05-07 23:51 34.68775 26.92769 37185 ft 514 kts 119°
2026-05-07 23:51 34.64948 27.00099 37181 ft 514 kts 119°
2026-05-07 23:52 34.61141 27.07396 37181 ft 514 kts 119°
2026-05-07 23:52 34.57314 27.14714 37181 ft 514 kts 120°
2026-05-07 23:53 34.53471 27.22025 37191 ft 513 kts 119°
2026-05-07 23:53 34.49638 27.29320 37171 ft 513 kts 119°
2026-05-07 23:54 34.45791 27.36620 37171 ft 513 kts 119°
2026-05-07 23:54 34.41946 27.43901 37171 ft 513 kts 119°
2026-05-07 23:55 34.38096 27.51182 37180 ft 513 kts 119°
2026-05-07 23:55 34.34269 27.58401 37184 ft 512 kts 119°
2026-05-07 23:56 34.30418 27.65648 37183 ft 512 kts 119°
2026-05-07 23:56 34.26574 27.72880 37179 ft 511 kts 119°
2026-05-07 23:57 34.22721 27.80112 37177 ft 511 kts 120°
2026-05-07 23:57 34.18867 27.87326 37174 ft 511 kts 120°
2026-05-07 23:58 34.15012 27.94529 37170 ft 511 kts 120°
2026-05-07 23:58 34.11166 28.01684 37168 ft 510 kts 120°
2026-05-07 23:59 34.07299 28.08867 37158 ft 510 kts 120°
2026-05-07 23:59 34.03431 28.16040 37164 ft 510 kts 120°
2026-05-08 00:00 33.99567 28.23200 37164 ft 509 kts 120°
2026-05-08 00:00 33.95706 28.30347 37164 ft 509 kts 120°
2026-05-08 00:01 33.91842 28.37490 37176 ft 509 kts 120°
2026-05-08 00:01 33.87973 28.44622 37179 ft 508 kts 119°
2026-05-08 00:02 33.84100 28.51735 37179 ft 508 kts 120°
2026-05-08 00:02 33.80228 28.58834 37174 ft 507 kts 120°
2026-05-08 00:03 33.76383 28.65889 37170 ft 507 kts 120°
2026-05-08 00:03 33.72485 28.72957 37176 ft 508 kts 123°
2026-05-08 00:04 33.67654 28.79187 37169 ft 512 kts 135°
2026-05-08 00:04 33.62447 28.85024 37148 ft 512 kts 135°
2026-05-08 00:05 33.57250 28.90873 37152 ft 512 kts 135°
2026-05-08 00:05 33.52039 28.96721 37173 ft 513 kts 135°
2026-05-08 00:06 33.46853 29.02510 37170 ft 513 kts 135°
2026-05-08 00:06 33.41625 29.08329 37167 ft 513 kts 135°
2026-05-08 00:07 33.36403 29.14146 37161 ft 513 kts 135°
2026-05-08 00:07 33.31182 29.19953 37140 ft 513 kts 135°
2026-05-08 00:08 33.25953 29.25756 37165 ft 513 kts 135°
2026-05-08 00:08 33.20719 29.31552 37165 ft 513 kts 135°
2026-05-08 00:09 33.15498 29.37321 37165 ft 513 kts 135°
2026-05-08 00:09 33.10266 29.43104 37166 ft 513 kts 135°
2026-05-08 00:10 33.05026 29.48881 37165 ft 513 kts 135°
2026-05-08 00:10 32.99819 29.54608 37160 ft 512 kts 135°
2026-05-08 00:11 32.94580 29.60359 37160 ft 512 kts 134°
2026-05-08 00:11 32.89351 29.66105 37158 ft 512 kts 134°
2026-05-08 00:12 32.84118 29.71834 37151 ft 511 kts 135°
2026-05-08 00:12 32.78872 29.77553 37152 ft 512 kts 135°
2026-05-08 00:13 32.73628 29.83271 37172 ft 512 kts 134°
2026-05-08 00:13 32.68371 29.89001 37163 ft 512 kts 134°
2026-05-08 00:14 32.63152 29.94681 37149 ft 512 kts 134°
2026-05-08 00:14 32.57899 30.00386 37153 ft 512 kts 134°
2026-05-08 00:15 32.52648 30.06074 37154 ft 512 kts 134°
2026-05-08 00:15 32.47390 30.11770 37175 ft 511 kts 134°
2026-05-08 00:16 32.42124 30.17448 37156 ft 512 kts 134°
2026-05-08 00:16 32.36849 30.23124 37148 ft 513 kts 134°
2026-05-08 00:17 32.31565 30.28797 37131 ft 513 kts 134°
2026-05-08 00:17 32.26332 30.34402 37145 ft 513 kts 134°
2026-05-08 00:18 32.21080 30.40026 37164 ft 513 kts 134°
2026-05-08 00:18 32.15798 30.45687 37154 ft 513 kts 134°
2026-05-08 00:19 32.10509 30.51329 37140 ft 514 kts 134°
2026-05-08 00:19 32.05205 30.56981 37147 ft 514 kts 134°
2026-05-08 00:20 31.99900 30.62634 37136 ft 514 kts 134°
2026-05-08 00:20 31.94583 30.68275 37137 ft 514 kts 134°
2026-05-08 00:21 31.89266 30.73911 37144 ft 514 kts 134°
2026-05-08 00:21 31.83959 30.79533 37150 ft 515 kts 134°
2026-05-08 00:22 31.81308 30.82336 37039 ft 514 kts 134°
2026-05-08 00:22 31.78754 30.85034 36405 ft 514 kts 134°
2026-05-08 00:22 31.76086 30.87849 35672 ft 515 kts 134°
2026-05-08 00:22 31.73415 30.90666 35102 ft 514 kts 134°
2026-05-08 00:23 31.70762 30.93461 34577 ft 511 kts 135°
2026-05-08 00:23 31.68125 30.96237 34068 ft 509 kts 135°
2026-05-08 00:23 31.65497 30.99002 33513 ft 506 kts 135°
2026-05-08 00:23 31.62884 31.01749 33030 ft 501 kts 135°
2026-05-08 00:24 31.60295 31.04465 32581 ft 496 kts 135°
2026-05-08 00:24 31.57735 31.07148 32154 ft 491 kts 136°
2026-05-08 00:24 31.55048 31.09599 31744 ft 488 kts 146°
2026-05-08 00:24 31.52098 31.11513 31330 ft 482 kts 157°
2026-05-08 00:25 31.48967 31.12845 30927 ft 475 kts 167°
2026-05-08 00:25 31.46847 31.13397 30663 ft 470 kts 174°
2026-05-08 00:25 31.42595 31.14183 30137 ft 463 kts 174°
2026-05-08 00:25 31.40553 31.14563 29849 ft 460 kts 174°
2026-05-08 00:26 31.37413 31.15152 29399 ft 455 kts 174°
2026-05-08 00:26 31.34295 31.15739 28963 ft 450 kts 174°
2026-05-08 00:26 31.31222 31.16318 28547 ft 445 kts 174°
2026-05-08 00:26 31.28182 31.16889 28139 ft 440 kts 174°
2026-05-08 00:27 31.25169 31.17453 27739 ft 435 kts 174°
2026-05-08 00:27 31.22171 31.18012 26909 ft 441 kts 174°
2026-05-08 00:27 31.19110 31.18576 25748 ft 451 kts 174°
2026-05-08 00:27 31.16029 31.19146 24966 ft 449 kts 173°
2026-05-08 00:28 31.12964 31.19718 24315 ft 442 kts 173°
2026-05-08 00:28 31.09987 31.20276 23725 ft 435 kts 173°
2026-05-08 00:28 31.07017 31.20832 23077 ft 430 kts 173°
2026-05-08 00:28 31.04076 31.21382 22572 ft 425 kts 173°
2026-05-08 00:29 31.01167 31.21924 22065 ft 421 kts 173°
2026-05-08 00:29 30.98372 31.22446 21587 ft 417 kts 173°
2026-05-08 00:29 30.95520 31.22976 21101 ft 413 kts 173°
2026-05-08 00:29 30.92687 31.23498 20619 ft 410 kts 173°
2026-05-08 00:30 30.89880 31.24015 20143 ft 407 kts 173°
2026-05-08 00:30 30.87093 31.24528 19677 ft 404 kts 173°
2026-05-08 00:30 30.84328 31.25037 19224 ft 400 kts 173°
2026-05-08 00:30 30.81590 31.25542 18763 ft 397 kts 173°
2026-05-08 00:31 30.78869 31.26043 18201 ft 396 kts 173°
2026-05-08 00:31 30.76139 31.26547 17343 ft 399 kts 173°
2026-05-08 00:31 30.73401 31.27055 16619 ft 398 kts 173°
2026-05-08 00:31 30.70677 31.27562 15946 ft 396 kts 172°
2026-05-08 00:32 30.67966 31.28063 15290 ft 393 kts 172°
2026-05-08 00:32 30.65265 31.28560 14651 ft 391 kts 172°
2026-05-08 00:32 30.62613 31.29049 14024 ft 389 kts 172°
2026-05-08 00:32 30.59947 31.29541 13344 ft 387 kts 172°
2026-05-08 00:33 30.57295 31.30030 12668 ft 384 kts 172°
2026-05-08 00:33 30.54668 31.30511 12155 ft 377 kts 172°
2026-05-08 00:33 30.52128 31.30977 12027 ft 363 kts 172°
2026-05-08 00:33 30.49670 31.31430 11790 ft 353 kts 172°
2026-05-08 00:34 30.47267 31.31872 11546 ft 345 kts 172°
2026-05-08 00:34 30.44921 31.32302 11315 ft 338 kts 172°
2026-05-08 00:34 30.42622 31.32724 11073 ft 331 kts 172°
2026-05-08 00:34 30.40368 31.33138 10837 ft 325 kts 172°
2026-05-08 00:35 30.38167 31.33529 10565 ft 320 kts 175°
2026-05-08 00:35 30.35988 31.33330 10245 ft 313 kts 199°
2026-05-08 00:35 30.33926 31.32544 9855 ft 312 kts 200°
2026-05-08 00:35 30.31863 31.31780 9458 ft 311 kts 200°
2026-05-08 00:36 30.29808 31.31020 9087 ft 309 kts 200°
2026-05-08 00:36 30.27811 31.30145 8707 ft 306 kts 204°
2026-05-08 00:36 30.25849 31.29205 8327 ft 304 kts 205°
2026-05-08 00:36 30.23901 31.28259 7945 ft 302 kts 205°
2026-05-08 00:37 30.21967 31.27313 7544 ft 300 kts 205°
2026-05-08 00:37 30.20048 31.26370 7164 ft 299 kts 205°
2026-05-08 00:37 30.18168 31.25440 6792 ft 297 kts 205°
2026-05-08 00:38 30.14403 31.23564 6012 ft 293 kts 205°
2026-05-08 00:38 30.12540 31.22624 5591 ft 292 kts 205°
2026-05-08 00:38 30.10686 31.21672 5153 ft 291 kts 205°
2026-05-08 00:38 30.08843 31.20711 4729 ft 291 kts 205°
2026-05-08 00:39 30.07005 31.19736 4310 ft 290 kts 205°
2026-05-08 00:39 30.05183 31.18770 3986 ft 284 kts 200°
2026-05-08 00:39 30.03306 31.18413 3859 ft 266 kts 171°
2026-05-08 00:39 30.01623 31.19022 3737 ft 247 kts 148°
2026-05-08 00:40 30.00146 31.19946 3602 ft 235 kts 142°
2026-05-08 00:40 29.99050 31.21220 3391 ft 218 kts 113°
2026-05-08 00:40 29.98588 31.22824 3163 ft 207 kts 89°
2026-05-08 00:40 29.98739 31.24425 2976 ft 199 kts 67°
2026-05-08 00:41 29.99398 31.25784 2873 ft 197 kts 48°
2026-05-08 00:41 30.00300 31.26979 2777 ft 197 kts 48°
2026-05-08 00:41 30.01183 31.28149 2678 ft 188 kts 48°
2026-05-08 00:41 30.02014 31.29253 2605 ft 176 kts 48°
2026-05-08 00:42 30.02788 31.30280 2515 ft 165 kts 48°
2026-05-08 00:42 30.03524 31.31256 2308 ft 158 kts 48°
2026-05-08 00:42 30.04212 31.32171 2109 ft 144 kts 48°
2026-05-08 00:42 30.04838 31.33002 1947 ft 133 kts 47°
2026-05-08 00:43 30.05433 31.33792 1767 ft 128 kts 47°
2026-05-08 00:43 30.06014 31.34562 1590 ft 126 kts 48°
2026-05-08 00:43 30.06594 31.35334 1410 ft 128 kts 47°
2026-05-08 00:43 30.07180 31.36112 1244 ft 128 kts 49°
2026-05-08 00:44 30.07758 31.36881 1074 ft 128 kts 47°
2026-05-08 00:44 30.08350 31.37669 911 ft 130 kts 48°
2026-05-08 00:44 30.08936 31.38448 729 ft 129 kts 49°
2026-05-08 00:44 30.09525 31.39231 573 ft 128 kts 49°
2026-05-08 00:45 30.10105 31.40005 410 ft 127 kts 49°
2026-05-08 00:45 30.10626 31.40703 386 ft 85 kts 49°
2026-05-08 00:45 30.10896 31.41058 388 ft 49 kts 49°
2026-05-08 00:45 30.11091 31.41318 389 ft 36 kts 48°
2026-05-08 00:46 30.11238 31.41504 388 ft 26 kts 39°
2026-05-08 00:46 30.11395 31.41588 388 ft 24 kts 20°
2026-05-08 00:46 30.11524 31.41613 389 ft 16 kts 336°
2026-05-08 00:46 30.11526 31.41510 389 ft 15 kts 230°
2026-05-08 00:47 30.11460 31.41423 389 ft 15 kts 229°
2026-05-08 00:47 30.11394 31.41335 389 ft 14 kts 229°
2026-05-08 00:47 30.11332 31.41253 389 ft 13 kts 229°
2026-05-08 00:47 30.11270 31.41171 389 ft 13 kts 229°
2026-05-08 00:48 30.11204 31.41082 389 ft 15 kts 231°
2026-05-08 00:48 30.11155 31.41011 389 ft 14 kts 230°
2026-05-08 00:48 30.11092 31.40931 389 ft 13 kts 227°
2026-05-08 00:48 30.11044 31.40851 389 ft 12 kts 260°
2026-05-08 00:49 30.11072 31.40763 383 ft 14 kts 263°
2026-05-08 00:49 30.11008 31.40662 379 ft 16 kts 229°
2026-05-08 00:49 30.10935 31.40566 378 ft 16 kts 229°
2026-05-08 00:49 30.10866 31.40473 379 ft 14 kts 229°
2026-05-08 00:50 30.10805 31.40391 382 ft 14 kts 228°
2026-05-08 00:50 30.10723 31.40283 386 ft 16 kts 229°
2026-05-08 00:50 30.10653 31.40189 384 ft 17 kts 229°
2026-05-08 00:50 30.10578 31.40087 380 ft 18 kts 231°
2026-05-08 00:51 30.10495 31.39978 379 ft 17 kts 229°
2026-05-08 00:51 30.10508 31.39861 376 ft 17 kts 322°
2026-05-08 00:51 30.10630 31.39815 370 ft 18 kts 332°
2026-05-08 00:51 30.10634 31.39687 372 ft 17 kts 257°
2026-05-08 00:52 30.10600 31.39525 371 ft 24 kts 263°
2026-05-08 00:52 30.10708 31.39448 372 ft 20 kts 346°
2026-05-08 00:52 30.10832 31.39412 370 ft 12 kts 345°
2026-05-08 00:52 30.10887 31.39422 370 ft 8 kts 56°
2026-05-08 00:53 30.10903 31.39482 371 ft 7 kts 75°
2026-05-08 00:53 30.10906 31.39497 370 ft 0 kts 75°